• In Österreich
  • Länderverzeichnis
  • Für 7 Tage
  • Wassertemperatur
  • Satellitenkarten
  • Wetterkarte
  • News
  • Widgets
  • user-avatar
    Anmelden

    Stündliche Wetter Shtip

    Heute, 23 September, Sonntag

    Zeit Temperatur Niederschläge Wind Luftdruck Luftfeuchtigkeit
    00:00 +20°C° 0 mm 1 m/S 732 mmHg 59%
    01:00 +19°C° 0 mm 1 m/S 732 mmHg 63%
    02:00 +19°C° 0 mm 1 m/S 732 mmHg 65%
    03:00 +18°C° 0 mm 1 m/S 732 mmHg 68%
    04:00 +18°C° 0 mm 1 m/S 732 mmHg 71%
    05:00 +19°C° 0 mm 1 m/S 732 mmHg 66%
    06:00 +21°C° 0 mm 1 m/S 732 mmHg 61%
    07:00 +22°C° 0 mm 1 m/S 732 mmHg 56%
    08:00 +25°C° 0 mm 1 m/S 732 mmHg 49%
    09:00 +27°C° 0 mm 1 m/S 733 mmHg 42%
    10:00 +30°C° 0 mm 1 m/S 733 mmHg 34%
    11:00 +31°C° 0 mm 1 m/S 732 mmHg 32%
    12:00 +32°C° 0 mm 1 m/S 732 mmHg 29%
    13:00 +33°C° 0 mm 1 m/S 732 mmHg 26%
    14:00 +33°C° 0 mm 1 m/S 732 mmHg 26%
    15:00 +34°C° 0 mm 2 m/S 731 mmHg 26%
    16:00 +32°C° 0 mm 2 m/S 731 mmHg 26%
    17:00 +30°C° 0 mm 1 m/S 731 mmHg 31%
    18:00 +27°C° 0 mm 1 m/S 731 mmHg 37%
    19:00 +24°C° 0 mm 1 m/S 731 mmHg 42%
    20:00 +23°C° 0 mm 1 m/S 731 mmHg 44%
    21:00 +22°C° 0 mm 1 m/S 731 mmHg 46%
    22:00 +21°C° 0 mm 2 m/S 731 mmHg 48%
    23:00 +20°C° 0 mm 2 m/S 731 mmHg 49%

    Morgen, 24 September, Montag

    Zeit Temperatur Niederschläge Wind Luftdruck Luftfeuchtigkeit
    00:00 +20°C° 0 mm 2 m/S 730 mmHg 51%
    01:00 +19°C° 0 mm 2 m/S 730 mmHg 53%
    02:00 +19°C° 0 mm 2 m/S 730 mmHg 54%
    03:00 +18°C° 0 mm 2 m/S 729 mmHg 56%
    04:00 +18°C° 0 mm 2 m/S 729 mmHg 58%
    05:00 +20°C° 0 mm 2 m/S 729 mmHg 54%
    06:00 +22°C° 0 mm 1 m/S 729 mmHg 51%
    07:00 +23°C° 0 mm 1 m/S 729 mmHg 47%
    08:00 +26°C° 0 mm 1 m/S 729 mmHg 41%
    09:00 +28°C° 0 mm 1 m/S 728 mmHg 36%
    10:00 +31°C° 0 mm 1 m/S 728 mmHg 30%
    11:00 +31°C° 0 mm 2 m/S 728 mmHg 27%
    12:00 +33°C° 0 mm 3 m/S 728 mmHg 25%
    13:00 +34°C° 0 mm 4 m/S 728 mmHg 23%
    14:00 +32°C° 0 mm 5 m/S 728 mmHg 28%
    15:00 +28°C° 0 mm 6 m/S 728 mmHg 34%
    16:00 +26°C° 0 mm 7 m/S 729 mmHg 40%
    17:00 +22°C° 0 mm 6 m/S 729 mmHg 47%
    18:00 +19°C° 0 mm 6 m/S 730 mmHg 55%
    19:00 +14°C° 0 mm 5 m/S 731 mmHg 63%
    20:00 +13°C° 0 mm 5 m/S 732 mmHg 65%
    21:00 +12°C° 0 mm 4 m/S 732 mmHg 67%
    22:00 +11°C° 0 mm 4 m/S 733 mmHg 69%
    23:00 +11°C° 0 mm 4 m/S 733 mmHg 70%

    übermorgen, 25 September, Dienstag

    Zeit Temperatur Niederschläge Wind Luftdruck Luftfeuchtigkeit
    00:00 +10°C° 0 mm 4 m/S 733 mmHg 71%
    01:00 +10°C° 0 mm 4 m/S 734 mmHg 71%
    02:00 +8°C° 0 mm 4 m/S 734 mmHg 72%
    03:00 +8°C° 0 mm 4 m/S 734 mmHg 72%
    04:00 +8°C° 0 mm 4 m/S 735 mmHg 72%
    05:00 +8°C° 0 mm 4 m/S 735 mmHg 66%
    06:00 +10°C° 0 mm 4 m/S 736 mmHg 61%
    07:00 +10°C° 0 mm 5 m/S 736 mmHg 55%
    08:00 +12°C° 0 mm 5 m/S 736 mmHg 46%
    09:00 +14°C° 0 mm 5 m/S 736 mmHg 37%
    10:00 +16°C° 0 mm 6 m/S 736 mmHg 27%
    11:00 +17°C° 0 mm 6 m/S 736 mmHg 25%
    12:00 +19°C° 0 mm 6 m/S 736 mmHg 23%
    13:00 +19°C° 0 mm 6 m/S 735 mmHg 21%
    14:00 +19°C° 0 mm 6 m/S 735 mmHg 22%
    15:00 +17°C° 0 mm 6 m/S 735 mmHg 23%
    16:00 +16°C° 0 mm 7 m/S 735 mmHg 24%
    17:00 +14°C° 0 mm 6 m/S 736 mmHg 29%
    18:00 +10°C° 0 mm 5 m/S 737 mmHg 34%
    19:00 +8°C° 0 mm 4 m/S 738 mmHg 39%
    20:00 +8°C° 0 mm 3 m/S 738 mmHg 42%
    21:00 +7°C° 0 mm 3 m/S 739 mmHg 45%
    22:00 +5°C° 0 mm 3 m/S 739 mmHg 48%
    23:00 +5°C° 0 mm 3 m/S 739 mmHg 50%

    26 September, Mittwoch

    Zeit Temperatur Niederschläge Wind Luftdruck Luftfeuchtigkeit
    00:00 +5°C° 0 mm 2 m/S 739 mmHg 53%
    01:00 +5°C° 0 mm 2 m/S 740 mmHg 55%
    02:00 +5°C° 0 mm 2 m/S 740 mmHg 58%
    03:00 +4°C° 0 mm 2 m/S 740 mmHg 61%
    04:00 +4°C° 0 mm 2 m/S 740 mmHg 63%
    05:00 +5°C° 0 mm 2 m/S 740 mmHg 58%
    06:00 +6°C° 0 mm 2 m/S 740 mmHg 54%
    07:00 +8°C° 0 mm 3 m/S 741 mmHg 49%
    08:00 +10°C° 0 mm 3 m/S 740 mmHg 41%
    09:00 +12°C° 0 mm 4 m/S 740 mmHg 34%
    10:00 +15°C° 0 mm 4 m/S 740 mmHg 27%
    11:00 +17°C° 0 mm 4 m/S 740 mmHg 24%
    12:00 +17°C° 0 mm 5 m/S 739 mmHg 21%
    13:00 +19°C° 0 mm 5 m/S 739 mmHg 18%
    14:00 +17°C° 0 mm 5 m/S 738 mmHg 19%
    15:00 +17°C° 0 mm 6 m/S 738 mmHg 20%
    16:00 +16°C° 0 mm 6 m/S 738 mmHg 20%
    17:00 +14°C° 0 mm 5 m/S 739 mmHg 26%
    18:00 +11°C° 0 mm 4 m/S 739 mmHg 31%
    19:00 +9°C° 0 mm 3 m/S 740 mmHg 36%
    20:00 +8°C° 0 mm 3 m/S 740 mmHg 39%
    21:00 +7°C° 0 mm 3 m/S 740 mmHg 43%
    22:00 +6°C° 0 mm 2 m/S 740 mmHg 46%
    23:00 +5°C° 0 mm 2 m/S 740 mmHg 47%

    27 September, Donnerstag

    Zeit Temperatur Niederschläge Wind Luftdruck Luftfeuchtigkeit
    00:00 +5°C° 0 mm 2 m/S 740 mmHg 48%
    01:00 +5°C° 0 mm 2 m/S 740 mmHg 50%
    02:00 +4°C° 0 mm 2 m/S 739 mmHg 50%
    03:00 +4°C° 0 mm 2 m/S 739 mmHg 50%
    04:00 +4°C° 0 mm 2 m/S 739 mmHg 50%
    05:00 +6°C° 0 mm 2 m/S 739 mmHg 46%
    06:00 +7°C° 0 mm 2 m/S 739 mmHg 41%
    07:00 +9°C° 0 mm 2 m/S 739 mmHg 37%
    08:00 +11°C° 0 mm 3 m/S 738 mmHg 31%
    09:00 +14°C° 0 mm 4 m/S 738 mmHg 25%
    10:00 +18°C° 0 mm 4 m/S 737 mmHg 19%
    11:00 +19°C° 0 mm 5 m/S 737 mmHg 17%
    12:00 +21°C° 0 mm 5 m/S 736 mmHg 16%
    13:00 +22°C° 0 mm 5 m/S 735 mmHg 14%
    14:00 +22°C° 0 mm 5 m/S 735 mmHg 14%
    15:00 +21°C° 0 mm 6 m/S 734 mmHg 15%
    16:00 +21°C° 0 mm 6 m/S 734 mmHg 16%
    17:00 +17°C° 0 mm 5 m/S 734 mmHg 21%
    18:00 +14°C° 0 mm 4 m/S 734 mmHg 26%
    19:00 +12°C° 0 mm 3 m/S 734 mmHg 31%
    20:00 +11°C° 0 mm 3 m/S 734 mmHg 34%
    21:00 +10°C° 0 mm 2 m/S 734 mmHg 36%
    22:00 +9°C° 0 mm 2 m/S 734 mmHg 38%
    23:00 +8°C° 0 mm 2 m/S 734 mmHg 39%

    28 September, Freitag

    Zeit Temperatur Niederschläge Wind Luftdruck Luftfeuchtigkeit
    00:00 +8°C° 0 mm 2 m/S 734 mmHg 40%
    01:00 +8°C° 0 mm 2 m/S 734 mmHg 41%
    02:00 +7°C° 0 mm 2 m/S 734 mmHg 42%
    03:00 +7°C° 0 mm 2 m/S 734 mmHg 42%
    04:00 +7°C° 0 mm 2 m/S 733 mmHg 43%
    05:00 +8°C° 0 mm 2 m/S 733 mmHg 40%
    06:00 +10°C° 0 mm 2 m/S 733 mmHg 36%
    07:00 +12°C° 0 mm 2 m/S 733 mmHg 33%
    08:00 +15°C° 0 mm 2 m/S 733 mmHg 29%
    09:00 +18°C° 0 mm 3 m/S 733 mmHg 25%
    10:00 +21°C° 0 mm 3 m/S 732 mmHg 21%
    11:00 +22°C° 0 mm 3 m/S 732 mmHg 20%
    12:00 +24°C° 0 mm 3 m/S 731 mmHg 19%
    13:00 +26°C° 0 mm 3 m/S 731 mmHg 17%
    14:00 +25°C° 0 mm 3 m/S 730 mmHg 18%
    15:00 +25°C° 0 mm 3 m/S 730 mmHg 19%
    16:00 +25°C° 0 mm 3 m/S 730 mmHg 20%
    17:00 +21°C° 0 mm 2 m/S 730 mmHg 25%
    18:00 +18°C° 0 mm 2 m/S 730 mmHg 30%
    19:00 +16°C° 0 mm 2 m/S 730 mmHg 36%
    20:00 +15°C° 0 mm 2 m/S 730 mmHg 38%
    21:00 +14°C° 0 mm 2 m/S 730 mmHg 40%
    22:00 +13°C° 0 mm 1 m/S 730 mmHg 42%
    23:00 +12°C° 0 mm 1 m/S 729 mmHg 44%
    Mehr zeigen